Temperature
14 14 14 14 14 14 14 14 14 15 15 15 15 15 16 16 16 16 15 15 15 15 15 15 15 15 15 15 14 14 14 14 14 15 15 15 15 15 15 15 15 15 15
14 14 14 14 14 14 14 14 15 15 15 15 15 16 16 16 16 16 16 15 15 15 15 15 15 15 15 15 14 14 14 14 14 14 14 14 15 14 14 14 15 15 15
13 14 14 14 14 14 14 15 15 15 15 15 16 16 16 16 16 16 16 16 15 15 15 15 15 15 15 15 14 14 14 14 14 14 14 14 14 14 14 14 14 15 15
13 13 14 14 14 14 14 15 15 15 15 16 16 16 16 16 16 16 16 16 15 16 15 15 15 15 15 15 14 14 14 14 14 14 14 14 14 14 14 14 14 14 14
13 13 13 13 14 14 14 14 15 15 15 15 15 15 15 15 15 15 16 15 15 16 15 15 15 15 15 15 15 14 14 14 14 14 14 14 14 14 14 14 14 14 14
12 12 13 13 13 13 14 14 14 14 15 15 15 15 15 15 15 15 15 15 15 15 15 15 15 15 15 15 15 15 14 14 14 14 13 13 13 13 13 13 13 13 13
12 12 12 12 12 12 13 13 13 13 14 14 14 14 14 14 14 15 15 15 15 15 15 15 15 15 15 15 15 14 14 14 14 14 13 13 13 13 13 13 13 13 13
12 12 12 12 12 12 12 12 12 12 13 13 13 13 13 13 14 14 14 14 14 14 14 14 14 14 14 14 14 14 14 14 14 14 14 13 13 13 13 13 13 12 12
12 12 12 12 12 12 12 12 12 12 12 12 12 12 12 12 13 13 13 13 13 13 13 13 14 14 14 14 14 14 14 14 14 14 14 13 13 13 13 13 13 12 12
12 11 12 12 12 12 11 11 11 11 11 11 11 11 12 12 12 12 13 13 13 13 13 13 13 13 14 14 14 14 14 14 14 14 14 13 13 13 13 13 12 12 12
12 12 12 12 11 12 11 11 11 11 11 11 11 11 11 11 11 12 12 12 12 12 12 12 12 13 13 13 14 14 14 13 13 13 13 13 13 13 13 12 12 12 12
12 12 12 12 11 11 11 11 11 11 11 11 10 10 10 10 11 11 11 11 11 11 11 12 12 12 13 13 13 13 13 13 13 13 13 13 12 12 12 12 12 12 12
13 12 12 12 11 11 11 11 11 11 11 10 10 10 10 10 10 11 11 11 11 11 11 11 11 12 12 12 12 12 13 13 12 12 12 12 12 12 12 12 12 12 11
13 13 12 12 11 11 11 11 11 11 11 10 10 10 10 10 10 10 10 10 10 10 10 11 11 11 11 11 11 12 12 12 12 12 12 11 11 11 11 11 11 11 11
14 13 12 12 11 11 11 11 11 11 10 10 10 10 10 10 10 9 9 10 10 10 10 10 10 11 11 11 11 11 11 11 11 11 11 11 11 11 11 11 11 11 10
13 13 12 12 11 11 11 11 11 11 10 10 10 10 10 10 9 9 9 9 9 10 10 10 10 10 10 10 10 10 10 10 10 10 10 10 10 10 10 10 10 10 10
13 13 12 12 11 11 11 11 11 10 10 10 10 10 10 9 9 9 9 9 9 10 10 9 9 9 9 9 9 9 9 9 9 9 9 9 9 9 9 9 9 9 9
13 13 12 12 11 11 11 11 11 10 10 10 10 9 9 9 9 9 9 9 9 9 9 9 9 9 9 9 9 9 9 9 9 9 9 9 9 9 9 8 8 8 8
13 12 12 12 12 11 11 11 11 11 10 10 9 9 9 8 8 8 8 8 8 8 8 8 8 8 8 8 8 8 8 8 8 8 8 8 8 8 8 8 8 8 8
13 13 12 12 12 12 12 11 11 11 10 10 10 9 9 8 8 8 8 8 8 8 8 8 8 8 8 8 8 8 8 8 8 7 7 7 7 7 7 7 7 7 7
13 13 12 12 12 12 12 11 11 11 10 10 10 9 9 8 8 8 8 8 8 8 8 8 8 8 8 8 8 7 7 7 7 7 7 7 7 6 6 6 6 6 6
14 13 13 12 12 12 12 11 11 11 10 10 9 9 8 8 8 8 8 8 8 8 8 8 8 8 8 8 8 8 7 7 7 7 7 6 6 6 6 6 6 6 6
14 13 13 13 12 12 12 11 11 11 10 10 9 9 9 8 8 8 8 8 8 9 9 9 9 8 8 8 8 8 8 8 8 7 6 6 6 6 6 6 6 6 6
14 13 13 13 13 12 12 12 12 11 11 10 10 9 9 8 8 8 9 9 9 9 9 9 9 8 8 9 9 9 8 8 8 7 7 6 6 6 6 6 6 5 5
14 14 13 13 13 13 12 12 12 11 11 10 10 10 9 9 9 9 9 9 9 9 9 9 9 9 9 9 9 9 9 8 8 7 7 7 6 6 6 6 5 5 5
14 14 13 13 13 13 12 12 12 12 11 11 10 10 9 9 9 9 9 9 9 10 9 9 9 9 9 9 9 9 9 9 8 8 7 7 7 6 6 6 5 5 5
Wind_Speed
7 7 7 6 5 4 3 2 1 1 3 4 5 6 6 7 6 5 3 3 2 2 3 4 4 4 3 3 3 3 4 4 5 4 3 2 2 2 1 6 9 13 17
7 7 6 5 4 3 2 2 3 4 5 6 6 5 3 3 2 4 4 3 3 3 3 3 3 3 3 3 3 4 4 5 5 5 4 4 5 4 3 5 5 8 11
7 6 5 4 3 2 3 4 4 5 5 4 4 2 2 2 1 1 2 3 4 4 3 2 2 2 2 2 3 3 3 3 4 4 4 4 4 3 3 4 5 3 6
6 5 4 3 2 2 3 4 4 4 4 4 3 2 2 2 3 3 1 1 2 2 2 2 2 2 3 2 1 0 1 2 2 3 3 3 3 2 2 3 4 4 4
7 7 7 5 5 4 5 6 6 7 7 6 6 6 6 6 7 7 6 5 4 3 2 2 2 6 6 3 2 2 2 1 1 1 2 2 2 2 3 3 4 3 3
7 7 7 7 7 7 7 7 7 8 8 8 8 8 9 9 11 11 8 6 6 5 4 3 3 6 7 6 5 3 1 1 1 1 1 1 2 3 3 2 2 2 3
8 8 9 8 8 8 8 8 8 8 8 9 9 9 9 11 14 13 12 7 6 5 5 4 2 2 5 4 6 7 5 5 3 1 1 1 1 1 1 1 2 2 2
8 8 8 8 8 8 8 9 9 8 7 7 8 8 7 10 15 14 14 7 5 5 5 4 4 2 3 4 1 2 3 4 4 2 1 2 2 1 1 1 2 1 1
8 8 8 8 8 8 8 8 7 6 6 6 6 7 7 9 15 16 14 6 4 4 4 4 5 5 7 8 5 3 2 2 3 5 5 5 4 4 3 3 2 1 0
8 7 7 7 7 8 8 7 6 5 5 5 5 6 7 7 12 16 15 6 6 5 4 4 8 7 7 8 6 5 3 2 1 2 2 2 2 2 1 0 1 1 0
6 6 7 7 7 7 7 7 6 6 6 5 5 4 5 6 9 13 14 7 6 5 4 4 4 6 6 7 5 4 3 4 3 2 2 2 2 2 0 1 0 1 0
4 4 5 7 7 7 7 7 7 7 7 7 7 6 5 6 8 10 12 10 8 5 5 4 4 7 6 6 5 5 5 5 3 4 4 4 4 3 3 3 2 1 1
4 4 4 6 6 7 7 8 7 7 6 6 6 6 6 7 9 15 12 11 11 5 4 4 5 6 5 4 4 5 5 4 4 4 4 4 3 3 3 3 4 3 3
4 4 6 6 7 7 7 7 7 7 7 7 7 7 6 7 9 9 9 8 9 7 5 5 6 7 6 6 5 4 5 5 5 4 4 3 3 3 4 3 3 3 3
4 5 6 5 5 6 6 6 6 6 5 5 5 6 6 7 8 11 8 7 7 7 6 5 6 6 7 7 7 7 6 6 6 5 4 3 3 4 4 4 4 4 4
5 5 4 4 4 5 6 5 9 7 7 9 9 7 5 7 9 11 12 13 14 13 9 7 8 8 8 8 8 7 7 7 6 6 5 5 4 4 4 4 4 4 4
6 5 4 4 3 3 4 5 4 3 5 8 9 9 8 9 11 12 11 11 14 13 10 8 8 8 8 8 7 7 7 7 6 6 6 6 5 5 5 5 5 5 5
6 5 3 3 3 4 3 3 3 3 2 2 3 4 6 8 11 13 12 9 9 9 8 8 8 7 7 7 7 7 7 7 6 6 6 6 6 5 5 5 5 5 4
6 4 4 2 2 2 2 3 3 4 4 3 2 1 2 2 6 11 11 7 7 7 7 7 7 7 7 7 6 6 6 6 6 6 6 6 6 5 5 5 4 6 5
5 4 3 2 1 1 1 3 3 3 4 4 5 4 5 5 5 6 6 6 6 6 6 6 6 7 6 6 6 5 5 6 6 6 5 5 6 5 5 6 5 5 5
5 4 2 4 0 2 2 2 3 4 4 4 4 3 4 3 4 4 4 5 5 5 5 5 5 5 5 5 5 6 6 5 5 5 5 5 5 4 4 4 5 5 5
2 5 4 2 2 2 2 1 3 3 4 5 4 3 1 2 3 3 3 4 4 4 3 4 4 3 3 3 4 5 5 5 5 5 5 5 4 4 4 4 5 5 5
3 1 3 3 3 4 2 1 2 3 3 4 4 3 3 2 2 3 3 3 3 3 3 4 2 1 4 6 7 6 5 5 5 5 5 4 4 4 4 5 5 5 5
4 2 2 2 4 3 3 2 2 3 3 3 3 3 3 3 3 3 3 3 2 3 3 4 3 4 6 8 10 10 9 9 10 10 8 4 4 4 4 4 4 5 4
5 3 3 3 3 4 3 3 3 3 3 3 3 4 4 3 4 4 3 3 3 3 3 4 4 5 9 11 10 9 9 9 10 11 9 4 5 5 4 4 3 4 5
6 5 3 3 2 2 2 2 3 3 3 3 4 4 4 4 4 4 3 3 3 3 3 4 4 5 8 9 8 8 9 10 12 12 8 5 4 4 4 3 4 5 5
Wind_Direction
45 56 60 63 64 69 65 62 67 249 247 247 252 252 219 197 193 169 201 189 239 247 207 210 220 225 216 224 227 226 221 206 229 253 228 220 202 233 228 250 230 195 201
36 45 51 50 44 28 353 313 283 273 267 263 252 246 199 153 164 156 181 182 222 248 242 215 219 213 208 220 218 225 226 217 217 242 242 225 221 221 211 252 252 211 202
34 38 39 40 27 350 315 296 277 270 278 276 263 264 116 132 154 150 183 212 223 225 232 227 226 190 198 200 207 226 232 239 221 226 243 232 225 215 217 243 256 258 237
30 37 39 27 3 334 323 320 320 323 319 321 332 8 59 65 33 4 336 287 279 257 230 226 219 120 84 52 44 55 240 260 247 235 245 243 227 209 197 223 246 245 252
32 35 31 30 27 23 17 12 12 10 5 10 14 24 35 43 31 14 355 339 323 313 303 272 136 118 113 104 79 27 12 340 289 259 261 250 225 198 213 210 227 248 253
43 41 37 36 31 30 28 26 26 23 18 22 23 35 45 36 24 21 6 343 331 329 323 331 147 166 165 174 184 197 211 317 339 337 287 272 251 224 215 207 213 229 253
44 40 37 39 38 34 32 30 34 38 35 35 35 44 53 33 20 12 2 332 308 307 309 313 312 119 151 196 205 211 221 222 227 320 356 331 325 274 172 196 211 212 221
40 44 40 37 36 35 36 36 35 40 44 43 38 42 50 35 19 9 353 322 299 300 305 320 333 21 48 26 18 208 200 184 200 201 68 56 51 60 104 149 166 144 101
37 42 42 36 32 30 32 36 34 33 41 50 39 36 38 30 18 11 0 331 331 329 339 17 33 56 41 29 5 351 60 113 144 123 102 97 89 81 90 86 90 95 321
35 37 42 40 36 29 25 25 28 31 33 55 56 47 39 29 21 16 9 359 356 350 1 47 58 59 38 24 8 11 29 20 110 141 153 173 174 156 165 159 153 161 300
37 35 36 35 47 42 23 19 21 23 24 31 48 54 55 43 23 19 16 13 354 353 13 32 42 39 38 26 18 28 29 348 352 69 93 80 76 87 152 270 224 169 231
51 42 52 48 39 40 35 28 24 20 25 26 26 27 30 41 28 10 10 11 3 6 19 24 24 19 22 22 30 37 19 2 21 56 63 53 46 35 23 16 17 35 86
65 43 64 75 64 41 37 36 30 27 28 25 19 20 21 25 16 6 4 8 11 16 22 21 19 21 13 27 48 27 17 31 49 58 59 51 38 34 28 16 17 25 43
97 68 71 69 71 59 39 41 43 28 22 19 18 16 16 26 16 4 358 4 8 12 14 25 31 41 43 46 47 41 46 50 56 60 61 50 38 35 29 19 18 14 40
89 85 85 83 89 85 68 45 48 54 38 21 9 15 20 20 5 2 11 11 5 9 14 32 40 38 39 40 43 41 39 40 45 42 47 44 39 41 32 21 21 31 43
70 67 68 91 96 120 121 93 53 61 56 54 44 42 59 30 7 12 16 22 24 29 43 46 43 40 40 39 41 40 37 36 34 38 42 41 39 41 39 29 31 36 38
68 65 56 53 69 91 127 143 136 89 55 53 50 49 46 29 22 18 19 34 37 41 50 47 44 41 40 39 37 38 35 28 29 37 37 33 31 33 37 35 30 27 28
89 83 76 66 54 60 65 82 115 138 137 108 65 48 39 34 28 24 25 45 44 44 46 43 39 36 36 36 33 33 32 27 27 32 31 27 26 31 36 35 35 24 18
66 65 57 62 65 83 89 88 75 79 90 94 95 39 359 28 36 37 37 46 49 44 42 41 36 34 33 32 27 27 33 29 27 28 28 24 21 27 29 26 29 26 26
91 63 16 333 154 125 99 97 91 86 84 76 62 32 10 35 46 36 39 42 46 46 44 47 40 33 28 25 19 18 32 35 26 24 23 22 20 23 23 24 24 25 24
141 139 237 282 28 78 67 80 92 93 91 89 85 56 18 40 54 46 44 45 47 45 43 52 51 33 25 21 15 19 32 39 30 18 14 15 19 20 19 24 21 29 28
161 167 192 177 107 78 33 71 97 107 115 120 137 139 80 64 68 61 59 60 58 57 48 57 60 37 19 19 16 20 33 35 27 12 4 2 7 18 23 31 31 37 32
286 178 177 153 133 129 236 225 145 134 129 131 136 135 130 111 100 87 84 84 78 70 58 58 67 44 34 33 44 46 39 19 358 350 350 356 12 24 32 39 39 43 39
284 244 231 185 165 176 218 208 161 147 139 141 143 132 128 130 117 101 96 95 94 89 82 73 49 41 65 61 59 55 40 19 5 351 342 1 29 31 41 45 41 39 38
284 262 239 235 187 188 211 203 183 176 167 161 152 143 142 139 133 128 125 120 112 105 93 85 62 50 71 72 63 48 31 24 18 5 354 21 45 37 45 54 58 55 48
271 267 252 236 212 206 212 215 203 181 170 163 151 145 147 146 144 143 143 144 141 137 123 107 92 82 86 83 65 47 34 26 18 13 20 50 61 39 34 54 67 65 63
Height
1496 1496 1496 1497 1498 1499 1500 1502 1503 1505 1507 1509 1510 1512 1515 1517 1518 1519 1521 1521 1522 1522 1522 1523 1523 1523 1523 1524 1524 1524 1525 1525 1525 1526 1527 1528 1528 1529 1530 1532 1534 1535 1537
1500 1500 1500 1501 1502 1502 1503 1504 1506 1507 1508 1509 1510 1512 1514 1516 1517 1518 1519 1520 1520 1521 1521 1522 1522 1522 1522 1521 1521 1521 1521 1522 1522 1522 1522 1523 1524 1525 1526 1527 1530 1531 1532
1504 1504 1504 1504 1505 1505 1505 1506 1507 1508 1508 1509 1510 1512 1513 1515 1516 1517 1518 1518 1519 1519 1520 1520 1520 1520 1520 1520 1519 1519 1519 1519 1519 1518 1518 1519 1519 1520 1521 1522 1524 1526 1527
1507 1506 1506 1506 1506 1506 1506 1507 1507 1508 1508 1509 1510 1511 1512 1513 1514 1515 1516 1517 1518 1518 1518 1519 1519 1518 1518 1518 1518 1517 1517 1516 1516 1515 1515 1515 1515 1516 1516 1517 1519 1521 1523
1509 1509 1508 1508 1508 1508 1508 1508 1508 1508 1508 1509 1509 1510 1510 1511 1511 1512 1513 1515 1515 1516 1516 1517 1517 1517 1517 1517 1516 1516 1515 1514 1514 1513 1513 1512 1512 1512 1513 1513 1514 1516 1518
1513 1512 1511 1510 1510 1509 1509 1508 1508 1508 1508 1508 1509 1509 1509 1509 1509 1510 1511 1512 1513 1513 1514 1514 1515 1515 1515 1515 1515 1515 1514 1513 1512 1512 1512 1511 1510 1510 1510 1510 1511 1512 1513
1518 1516 1515 1513 1512 1511 1510 1510 1509 1508 1508 1508 1508 1508 1508 1508 1508 1508 1508 1509 1510 1510 1511 1512 1513 1513 1513 1514 1513 1514 1513 1513 1512 1512 1511 1510 1509 1509 1508 1508 1509 1509 1510
1522 1520 1518 1517 1515 1514 1513 1512 1511 1510 1510 1509 1508 1508 1507 1507 1506 1506 1506 1506 1507 1508 1509 1509 1509 1510 1511 1511 1512 1512 1512 1512 1512 1511 1510 1510 1509 1508 1508 1508 1508 1508 1508
1526 1524 1522 1521 1519 1518 1516 1515 1514 1513 1512 1511 1510 1509 1508 1507 1506 1505 1504 1504 1505 1505 1506 1507 1507 1507 1508 1509 1510 1511 1511 1511 1511 1511 1510 1510 1509 1509 1508 1508 1507 1508 1508
1530 1528 1526 1524 1522 1521 1519 1518 1517 1516 1515 1514 1513 1511 1510 1508 1507 1505 1504 1504 1504 1504 1504 1505 1505 1505 1506 1507 1508 1509 1510 1510 1511 1510 1510 1510 1509 1509 1508 1508 1508 1508 1508
1533 1531 1529 1527 1526 1524 1522 1520 1519 1518 1517 1517 1515 1514 1512 1510 1508 1506 1505 1504 1503 1503 1503 1503 1503 1504 1504 1505 1507 1508 1508 1509 1509 1510 1510 1510 1510 1509 1509 1509 1508 1508 1509
1535 1534 1532 1530 1528 1526 1524 1522 1521 1520 1520 1518 1517 1516 1514 1512 1510 1508 1506 1505 1504 1504 1503 1503 1503 1503 1503 1504 1506 1507 1508 1508 1509 1509 1510 1510 1510 1510 1509 1509 1509 1509 1509
1537 1536 1534 1532 1530 1528 1527 1525 1523 1522 1521 1520 1519 1518 1516 1514 1511 1509 1508 1506 1505 1504 1504 1503 1503 1503 1503 1504 1505 1506 1507 1508 1508 1509 1509 1510 1510 1510 1509 1509 1509 1509 1509
1539 1538 1537 1535 1533 1531 1530 1528 1526 1525 1523 1522 1521 1519 1518 1516 1513 1511 1509 1508 1507 1506 1505 1504 1504 1504 1505 1505 1506 1507 1507 1508 1509 1509 1509 1510 1510 1510 1510 1510 1509 1509 1509
1541 1540 1538 1537 1536 1534 1533 1531 1530 1528 1527 1526 1524 1522 1520 1518 1516 1514 1512 1510 1509 1508 1507 1507 1506 1506 1507 1507 1508 1508 1509 1509 1509 1510 1510 1510 1510 1510 1510 1510 1510 1509 1509
1542 1541 1540 1539 1538 1537 1536 1535 1534 1532 1531 1529 1527 1525 1523 1521 1519 1517 1515 1514 1512 1511 1510 1509 1509 1509 1509 1510 1510 1510 1510 1511 1511 1511 1511 1511 1511 1511 1511 1510 1510 1510 1509
1543 1542 1542 1541 1540 1540 1539 1537 1536 1536 1534 1532 1530 1528 1526 1524 1522 1520 1519 1517 1516 1515 1513 1513 1513 1513 1513 1513 1512 1512 1512 1513 1513 1512 1512 1512 1512 1512 1511 1511 1510 1510 1509
1544 1543 1543 1542 1542 1542 1541 1540 1539 1537 1536 1535 1533 1531 1529 1527 1525 1523 1522 1521 1519 1518 1517 1517 1516 1516 1515 1515 1515 1514 1514 1514 1514 1514 1513 1513 1513 1512 1512 1511 1511 1510 1510
1545 1544 1544 1543 1543 1543 1543 1542 1541 1540 1538 1537 1535 1533 1531 1529 1528 1526 1524 1523 1521 1521 1520 1519 1519 1518 1517 1517 1516 1516 1516 1515 1515 1514 1514 1514 1513 1513 1512 1512 1511 1511 1510
1545 1545 1544 1544 1544 1544 1544 1543 1542 1541 1540 1538 1537 1535 1533 1531 1530 1528 1527 1525 1524 1523 1522 1521 1521 1520 1519 1518 1518 1517 1516 1516 1515 1515 1515 1514 1514 1513 1513 1512 1512 1511 1510
1546 1545 1545 1545 1545 1545 1544 1544 1543 1542 1541 1540 1538 1537 1535 1533 1531 1530 1528 1527 1526 1525 1524 1523 1522 1521 1520 1519 1518 1518 1517 1516 1516 1515 1515 1515 1514 1514 1513 1512 1512 1511 1510
1547 1546 1545 1545 1545 1545 1544 1544 1543 1543 1541 1540 1539 1537 1536 1534 1533 1531 1530 1529 1527 1526 1525 1524 1523 1522 1521 1520 1519 1518 1517 1517 1516 1515 1515 1515 1514 1514 1513 1513 1512 1511 1510
1546 1546 1545 1545 1544 1544 1544 1544 1543 1543 1542 1541 1540 1538 1537 1535 1534 1533 1531 1530 1529 1528 1526 1525 1524 1523 1522 1521 1520 1519 1518 1517 1516 1516 1515 1515 1515 1514 1514 1513 1512 1511 1511
1545 1545 1545 1545 1544 1544 1543 1543 1543 1543 1542 1541 1540 1539 1537 1536 1535 1533 1532 1531 1530 1529 1527 1527 1525 1524 1523 1522 1521 1520 1519 1518 1517 1517 1516 1516 1515 1515 1514 1514 1513 1512 1512
1543 1543 1543 1543 1543 1543 1542 1542 1542 1542 1541 1540 1539 1538 1537 1536 1535 1533 1532 1531 1530 1529 1528 1527 1526 1525 1524 1524 1523 1521 1520 1519 1518 1518 1517 1516 1516 1516 1515 1514 1514 1513 1513
1540 1541 1541 1541 1541 1541 1541 1541 1541 1541 1540 1540 1539 1538 1536 1535 1534 1533 1532 1532 1531 1530 1529 1528 1527 1526 1525 1525 1524 1523 1522 1521 1520 1519 1518 1517 1517 1517 1516 1516 1515 1515 1514